Regional Weather Roundup
Issued by NWS

Home | Current Version | Previous Version | Graphics & Text | Print | Product List | Glossary On
Versions: 1 2 3 4 5 6 7 8 9 10 11 12 13 14 15 16 17 18 19 20 21 22 23 24 25 26 27 28 29 30 31 32 33 34 35 36 37 38 39 40 41 42 43 44 45 46 47 48 49 50
000
ASUS43 KBIS 300320
RWRND

NORTH DAKOTA REGIONAL WEATHER ROUNDUP
NATIONAL WEATHER SERVICE BISMARCK ND
1000 PM CDT WED OCT 29 2014

NOTE: "FAIR" INDICATES FEW OR NO CLOUDS BELOW 12,000 FEET WITH NO
SIGNIFICANT WEATHER AND/OR OBSTRUCTIONS TO VISIBILITY.


NDZ001>003-009>011-017-300400-
NORTHWEST NORTH DAKOTA

CITY           SKY/WX    TMP DP  RH WIND       PRES   REMARKS
WILLISTON      CLEAR     43  36  76 N13       29.99R
MINOT          CLEAR     39  34  82 W10       29.92R
MINOT AFB      CLEAR     32  31  99 W10       29.92R
$$

NDZ018>021-031>035-040>046-300400-
SOUTHWEST NORTH DAKOTA

CITY           SKY/WX    TMP DP  RH WIND       PRES   REMARKS
BISMARCK       MOCLDY    44  43  96 CALM      29.94F FOG
DICKINSON      CLEAR     41  36  82 W10       29.95R
GARRISON         N/A     41  39  93 W8        29.92R
HETTINGER ARPT PTCLDY    37  33  85 NW8       30.00R
$$

NDZ004>008-012>016-024-026-027-054-300400-
NORTHEAST NORTH DAKOTA

CITY           SKY/WX    TMP DP  RH WIND       PRES   REMARKS
GRAND FORKS    CLOUDY    39  30  70 SE9       30.00S
GRND FRKS AFB  CLOUDY    39  31  72 SE9       29.99F
DEVILS LAKE    CLOUDY    41  30  65 SE9       29.90S
$$

NDZ022-023-025-028>030-036>039-047>053-300400-
SOUTHEAST NORTH DAKOTA

CITY           SKY/WX    TMP DP  RH WIND       PRES   REMARKS
FARGO          CLOUDY    41  30  65 SE13      30.00S
JAMESTOWN      LGT RAIN  42  39  89 S6        29.95R
$$




USA.gov is the U.S. government's official web portal to all federal, state and local government web resources and services.